TUBIN (48900 NORAD) Tracking and Keplerian Element Data

This shows tracking and keplerian element data for the satellite.

Feedback or suggestion? Click here.




ElementValue
Catalog48900
NameTUBIN
Epoch Orbit1394
Epoch Day269.08703803
Epoch Year2021
RAAN36.504
Inclination97.5217
Eccentricity0.0009073
Argument of Perigee298.8173
Mean Anonmoly175.5575
Mean Motion15.12301495
Decay Rate1.282E-05
L11 48900U 21059X 21269.08703803 .00001282 00000-0 77730-4 0 9998
L22 48900 97.5217 36.5040 0009073 298.8173 175.5575 15.12301495 13942

Live tracking and technical data element details for TUBIN (NORAD 48900). TUBIN can be tracked NOW for your location showing map with azimuth and elevation plus other details from your city location.

Track the satellite on the map from your city or location and see movement details for azimuth, elevation, latitude, longitude, range, height, and movement on the map or in text.







IsCatalogInMostPopularTable: catalog: 48900, numindb: 15
Update: records affected: 1



GetName: 48900 TUBIN

Hit Count: updated at: Sun, 26 Sep 2021 16:27:39 GMT